Location: Piotrkow Trybunalski
(51.4000°N, 19.6830°E)
Time: 15:17:59
(UTC+01:00)

Vanguard 2 - Pass Details

Date: 13 February 2023
Orbit: 553 x 2927 km, 32.9° (Epoch: 24 March)

Event Time Altitude Azimuth Distance (km) Brightness Sun altitude
Rises 20:23:45 0° 240° (WSW) 4,426 11.9 -33.0°
Reaches altitude 10° 20:26:44 10° 230° (SW) 3,758 11.3 -33.5°
Enters shadow 20:34:40 31° 179° (S) 3,113 10.3 -34.6°
Maximum altitude 20:35:27 32° 172° (S) 3,161 - -34.7°
Drops below altitude 10° 20:47:50 10° 119° (ESE) 5,398 - -36.4°
Sets 20:53:11 0° 111° (ESE) 6,630 - -37.2°
